Showing default

OPS 3367 B, 735

Orbit data source: Space-Track

OPS 3367 B, 735 is a payload satellite in SSO that was launched on Sun, 19 Jan 1964 UTC via a THOR SLV-2 AGENA D launch vehicle from the Air Force Western Test Range (AFWTR). Payload-class satellites include a variety of spacecraft equipped with specific instruments for various scientific and technological missions. These include communications satellites like Starlink; space stations such as the ISS; scientific satellites like the Hubble; Earth observation satellites from companies like Planet Labs, Umbra, and HawkEye 360; GPS; miniature CubeSats for education and research; and military/defense satellites.

Loading next visibility...
Identifier
735, 1964-002C
Orbit
SSO
Last TLE update
19 hours ago
Origin
Manufacturer
RCA/East Windsor
Mission
Defense Weather
Bus & Motor
P35, Unknown motor
Mass
50 kg wet, 50 kg dry
Launch date (UTC)
1964-01-19 (61 years ago)
Launch vehicle
THOR SLV-2 AGENA D
Launch site
Air Force Western Test Range (AFWTR)
Object type
Payload
Rocket body
Debris
Shape & HBR
Cyl, 0.6 m
Radar Cross Section
0.377 m², Medium (>0.1 m² and < 1m²)

Expand to show TLE details & history

TLE from 19 hours ago
0 OPS 3367 B
1 00735U 64002C   25138.71438071  .00000129  00000-0  70370-4 0  9990
2 00735  98.9859  47.0503 0016777  13.5585 346.6043 14.28442477190390
Epoch: 2025-05-18T17:08Z
TLE epoch observation values (Epoch: 2025-05-18T17:08:42.493Z)
Latitude
0.00002°
Longitude
-86.76414°
Altitude
788.147 km
Speed
7.466 km/s
True Right ascension
03h 08m 12s
True Declination
0° 00' 00"
Sunlit
Object was in daylight at epoch
Visualization orbit readout
Latitude
19.13748°
Longitude
97.18985°
Altitude
809.731 km
Speed
7.445 km/s
Apparent Right ascension
12h 56m 53s
Apparent Declination
-11° 56' 18"
Sunlit
Object is in full shadow
Visualization observer readout
Local Sidereal Time
21:12:23
Azimuth
283.25° WNW
Elevation
-33.436°
Doppler factor
1
Orbital elements
Apogee altitude
806.135 km
Perigee altitude
782.07 km
Semi-major axis
7,172.24 km
Eccentricity
0.00168
Inclination
98.9859°
RAAN
47.0503°
Arg. of periapsis
13.5585°
True anomaly
Unknown
Mean anomaly
346.6043°
Eccentric anomaly
Unknown
Mean motion
3.57323 °/min
Orbital period
100.75 mins
BSTAR
0.00007037
Loading maneuver chart data...
Loading SW <> Apogee altitude chart data...
Loading historical data...
Loading historical data...
Loading historical data...
Loading historical data...
Loading historical data...
Loading historical data...
Loading historical data...
Other satellites on launch #2 in the year 1964 (1964-01-19 UTC)

OPS 3367 B Visibility forecast

Observer location: undefined°, undefined°

Span
Click to sort rows by Start time (UTC) header in descending order
Start Az.
Max El. time (UTC)
Max El. Az.
Max El.
End time (UTC)
End Az.
8 mins2025-05-19 16:49:09.690Z119.294° SE2025-05-19 16:53:09.690Z65.64° ENE23.81°2025-05-19 16:57:09.690Z12.096° NNE
8 mins2025-05-19 18:29:09.690Z202.982° SW2025-05-19 18:32:09.690Z251.541° W30.724°2025-05-19 18:37:09.690Z328.29° NNW
8 mins2025-05-20 06:43:09.690Z17.878° NNE2025-05-20 06:47:09.690Z150.777° SSE44.104°2025-05-20 06:51:09.690Z190.437° SSW
|